TimeEDT,TemperatureF,Dew PointF,Humidity,Sea Level PressureIn,VisibilityMPH,Wind Direction,Wind SpeedMPH,Gust SpeedMPH,PrecipitationIn,Events,Conditions,WindDirDegrees,DateUTC
12:08 AM,64.4,62.6,94,30.09,2.5,Calm,Calm,-,N/A,,Clear,0,2013-08-12 04:08:00
12:21 AM,64.4,62.6,94,30.09,2.0,Calm,Calm,-,N/A,,Clear,0,2013-08-12 04:21:00
12:35 AM,64.4,62.6,94,30.09,1.5,Calm,Calm,-,N/A,,Clear,0,2013-08-12 04:35:00
12:45 AM,62.6,62.6,100,30.10,2.5,Calm,Calm,-,N/A,,Clear,0,2013-08-12 04:45:00
12:53 AM,63.0,62.1,97,30.08,5.0,Calm,Calm,-,N/A,,Clear,0,2013-08-12 04:53:00
1:31 AM,62.6,60.8,94,30.09,1.8,Calm,Calm,-,N/A,,Clear,0,2013-08-12 05:31:00
1:35 AM,62.6,60.8,94,30.09,0.8,Calm,Calm,-,N/A,,Clear,0,2013-08-12 05:35:00
1:48 AM,62.6,60.8,94,30.09,0.5,Calm,Calm,-,N/A,Fog,Fog,0,2013-08-12 05:48:00
1:53 AM,62.1,61.0,96,30.08,0.8,Calm,Calm,-,N/A,,Clear,0,2013-08-12 05:53:00
1:55 AM,62.6,60.8,94,30.09,1.5,Calm,Calm,-,N/A,,Clear,0,2013-08-12 05:55:00
1:58 AM,62.6,60.8,94,30.09,3.0,Calm,Calm,-,N/A,,Clear,0,2013-08-12 05:58:00
2:36 AM,62.6,60.8,94,30.09,1.8,Calm,Calm,-,N/A,,Clear,0,2013-08-12 06:36:00
2:40 AM,62.6,60.8,94,30.09,0.8,Calm,Calm,-,N/A,,Clear,0,2013-08-12 06:40:00
2:53 AM,62.1,60.1,93,30.08,1.0,Calm,Calm,-,N/A,,Mist,0,2013-08-12 06:53:00
3:01 AM,60.8,60.8,100,30.09,2.0,Calm,Calm,-,N/A,,Partly Cloudy,0,2013-08-12 07:01:00
3:12 AM,60.8,60.8,100,30.09,1.5,Calm,Calm,-,N/A,,Partly Cloudy,0,2013-08-12 07:12:00
3:23 AM,60.8,60.8,100,30.09,2.5,Calm,Calm,-,N/A,,Clear,0,2013-08-12 07:23:00
3:31 AM,60.8,60.8,100,30.09,4.0,Calm,Calm,-,N/A,,Clear,0,2013-08-12 07:31:00
3:36 AM,60.8,60.8,100,30.09,1.8,Calm,Calm,-,N/A,,Partly Cloudy,0,2013-08-12 07:36:00
3:38 AM,60.8,60.8,100,30.09,0.8,Calm,Calm,-,N/A,,Mist,0,2013-08-12 07:38:00
3:53 AM,61.0,60.1,97,30.07,0.5,Calm,Calm,-,N/A,Fog,Fog,0,2013-08-12 07:53:00
4:00 AM,60.8,60.8,100,30.08,1.2,Calm,Calm,-,N/A,,Partly Cloudy,0,2013-08-12 08:00:00
4:08 AM,60.8,59.0,94,30.09,2.5,Calm,Calm,-,N/A,,Clear,0,2013-08-12 08:08:00
4:16 AM,60.8,59.0,94,30.09,3.0,Calm,Calm,-,N/A,,Clear,0,2013-08-12 08:16:00
4:19 AM,60.8,59.0,94,30.08,1.8,Calm,Calm,-,N/A,,Clear,0,2013-08-12 08:19:00
4:32 AM,60.8,57.2,88,30.09,2.5,Calm,Calm,-,N/A,,Clear,0,2013-08-12 08:32:00
4:38 AM,60.8,57.2,88,30.09,1.2,Calm,Calm,-,N/A,,Clear,0,2013-08-12 08:38:00
4:40 AM,60.8,57.2,88,30.09,0.8,Calm,Calm,-,N/A,,Clear,0,2013-08-12 08:40:00
4:53 AM,60.1,57.9,93,30.07,0.5,Calm,Calm,-,N/A,Fog,Fog,0,2013-08-12 08:53:00
4:59 AM,60.8,59.0,94,30.08,1.5,Calm,Calm,-,N/A,,Clear,0,2013-08-12 08:59:00
5:01 AM,60.8,59.0,94,30.08,3.0,Calm,Calm,-,N/A,,Clear,0,2013-08-12 09:01:00
5:07 AM,60.8,57.2,88,30.08,1.5,Calm,Calm,-,N/A,,Clear,0,2013-08-12 09:07:00
5:09 AM,59.0,57.2,94,30.08,0.8,Calm,Calm,-,N/A,,Clear,0,2013-08-12 09:09:00
5:20 AM,59.0,59.0,100,30.08,0.2,Calm,Calm,-,N/A,Fog,Fog,0,2013-08-12 09:20:00
5:30 AM,60.8,57.2,88,30.08,1.2,Calm,Calm,-,N/A,,Partly Cloudy,0,2013-08-12 09:30:00
5:35 AM,59.0,57.2,94,30.08,2.5,Calm,Calm,-,N/A,,Partly Cloudy,0,2013-08-12 09:35:00
5:42 AM,59.0,57.2,94,30.08,5.0,Calm,Calm,-,N/A,,Partly Cloudy,0,2013-08-12 09:42:00
5:53 AM,59.0,57.9,96,30.07,5.0,Calm,Calm,-,N/A,,Clear,0,2013-08-12 09:53:00
6:11 AM,59.0,57.2,94,30.08,1.8,Calm,Calm,-,N/A,,Clear,0,2013-08-12 10:11:00
6:26 AM,59.0,57.2,94,30.08,0.8,Calm,Calm,-,N/A,,Clear,0,2013-08-12 10:26:00
6:53 AM,60.1,59.0,96,30.07,1.0,Calm,Calm,-,N/A,,Clear,0,2013-08-12 10:53:00
6:55 AM,60.8,59.0,94,30.09,2.0,Calm,Calm,-,N/A,,Clear,0,2013-08-12 10:55:00
7:02 AM,60.8,59.0,94,30.08,4.0,Calm,Calm,-,N/A,,Clear,0,2013-08-12 11:02:00
7:53 AM,64.0,62.1,93,30.06,5.0,Calm,Calm,-,0.01,,Clear,0,2013-08-12 11:53:00
8:53 AM,70.0,64.9,84,30.07,9.0,Calm,Calm,-,N/A,,Clear,0,2013-08-12 12:53:00
9:53 AM,75.0,64.9,71,30.06,10.0,South,3.5,-,N/A,,Clear,170,2013-08-12 13:53:00
10:53 AM,79.0,64.9,62,30.05,10.0,Calm,Calm,-,N/A,,Clear,0,2013-08-12 14:53:00
11:53 AM,80.1,66.0,62,30.04,10.0,SSW,9.2,-,N/A,,Partly Cloudy,210,2013-08-12 15:53:00
12:53 PM,79.0,64.9,62,30.03,10.0,Variable,5.8,-,N/A,,Scattered Clouds,0,2013-08-12 16:53:00
1:53 PM,82.0,64.9,56,30.01,10.0,SSW,5.8,-,N/A,,Partly Cloudy,210,2013-08-12 17:53:00
2:53 PM,82.9,66.9,58,29.99,10.0,SSW,6.9,-,N/A,,Scattered Clouds,200,2013-08-12 18:53:00
3:53 PM,84.0,66.9,56,29.96,10.0,SSW,5.8,-,N/A,,Partly Cloudy,200,2013-08-12 19:53:00
4:53 PM,82.0,66.0,58,29.95,10.0,SW,3.5,-,N/A,,Partly Cloudy,230,2013-08-12 20:53:00
5:53 PM,81.0,66.9,62,29.93,10.0,SW,5.8,-,N/A,,Clear,220,2013-08-12 21:53:00
6:53 PM,81.0,66.9,62,29.91,10.0,SSW,3.5,-,N/A,,Clear,210,2013-08-12 22:53:00
7:53 PM,79.0,68.0,69,29.90,9.0,Calm,Calm,-,N/A,,Scattered Clouds,0,2013-08-12 23:53:00
8:53 PM,77.0,69.1,76,29.90,9.0,SSW,5.8,-,N/A,,Overcast,200,2013-08-13 00:53:00
9:50 PM,75.2,69.8,83,29.92,8.0,South,4.6,-,N/A,Thunderstorm,Mostly Cloudy,190,2013-08-13 01:50:00
9:53 PM,75.0,69.1,82,29.90,8.0,SSW,5.8,-,N/A,Thunderstorm,Mostly Cloudy,200,2013-08-13 01:53:00
10:17 PM,73.4,69.8,88,29.93,2.0,SW,6.9,-,0.08,Rain-Thunderstorm,Heavy Thunderstorms and Rain,230,2013-08-13 02:17:00
10:24 PM,71.6,69.8,94,29.93,1.5,SW,8.1,-,0.11,Rain-Thunderstorm,Thunderstorms and Rain,220,2013-08-13 02:24:00
10:33 PM,71.6,69.8,94,29.92,2.0,SW,5.8,-,0.17,Rain-Thunderstorm,Heavy Thunderstorms and Rain,220,2013-08-13 02:33:00
10:40 PM,71.6,69.8,94,29.92,3.0,SSW,3.5,-,0.18,Rain-Thunderstorm,Light Thunderstorms and Rain,210,2013-08-13 02:40:00
10:53 PM,71.1,69.1,93,29.90,4.0,Calm,Calm,-,0.19,Rain-Thunderstorm,Light Rain,0,2013-08-13 02:53:00
11:02 PM,71.6,69.8,94,29.92,4.0,Calm,Calm,-,0.00,Rain,Light Rain,0,2013-08-13 03:02:00
11:53 PM,72.0,70.0,93,29.88,4.0,SSE,3.5,-,0.00,Rain,Light Rain,150,2013-08-13 03:53:00